Location: Unspecified
(48.7170°N, 0.0000°E)
Time: 03:38:21
(UTC+00:00)

ISS - Pass Details

Date: 26 May 2019
Orbit: 407 x 419 km, 51.6° (Epoch: 26 June)

Event Time Altitude Azimuth Distance (km) Brightness Sun altitude
Rises 20:28:12 0° 273° (W) 2,352 1.0 -6.0°
Reaches altitude 10° 20:30:19 10° 279° (W) 1,492 0.0 -6.3°
Maximum altitude 20:33:35 49° 356° (N) 544 -2.8 -6.7°
Drops below altitude 10° 20:36:53 10° 73° (ENE) 1,500 -1.2 -7.1°
Sets 20:39:02 0° 79° (E) 2,366 -0.3 -7.3°
